Lid_Strength_Index
5 3 3 2 2 3 3 2 2 2 3 2 2 2 2 1 1 1 1 1 1 2 2 2 2 1 1 1 2 2 2 2 3 3 3 2 1 1 2 1 1 1 1
6 6 4 3 3 3 4 4 3 2 2 2 1 1 1 2 2 2 1 1 1 1 2 2 2 2 1 2 2 2 3 3 3 4 4 5 3 2 2 2 1 1 1
6 5 6 5 5 4 4 4 4 4 3 2 1 1 2 2 3 3 3 2 1 1 1 2 2 3 2 2 2 3 3 3 3 3 3 6 6 4 3 3 2 2 3
7 5 5 4 3 3 4 3 2 2 2 2 3 3 4 5 4 4 3 3 3 3 3 3 3 3 3 2 1 2 3 2 3 2 2 3 3 5 6 4 3 3 3
5 5 4 4 3 3 4 5 5 5 5 5 5 4 5 5 5 5 5 5 3 3 2 3 4 4 2 1 1 3 3 3 2 2 3 3 4 3 5 6 4 5 4
5 5 4 3 4 5 5 5 6 5 5 5 5 5 6 6 5 5 5 5 4 4 3 2 2 2 1 1 1 2 2 2 1 2 2 3 4 5 5 5 5 6 5
5 5 5 4 5 5 5 5 5 7 6 6 5 5 5 5 6 5 5 5 5 5 4 4 4 3 3 2 2 3 2 2 3 3 2 4 4 4 5 5 5 6 6
5 5 5 4 4 4 4 4 4 5 5 4 4 5 5 6 6 5 5 5 5 4 4 4 4 4 3 3 3 2 2 2 2 3 3 3 3 3 3 4 5 7 7
6 5 5 4 4 4 4 4 4 4 4 4 4 4 4 4 4 5 4 4 4 2 3 3 3 3 3 3 4 4 3 3 2 2 3 3 3 3 3 4 5 6 8
7 6 5 4 4 4 5 4 4 4 4 4 4 4 4 4 4 4 4 4 4 4 4 4 4 4 4 4 4 4 4 4 5 3 3 2 2 2 2 2 3 3 4
7 6 5 5 5 4 5 5 4 4 5 5 4 4 4 4 5 5 6 6 5 5 5 4 4 4 4 4 4 4 4 4 4 3 2 2 2 3 3 3 3 4 5
7 7 5 5 5 6 6 6 5 5 5 5 5 5 5 5 6 6 5 5 6 5 5 4 4 4 4 4 5 5 5 5 5 5 4 4 2 4 3 2 3 3 4
7 6 6 6 6 6 6 6 6 5 5 5 5 5 5 5 6 6 6 6 5 5 5 5 5 5 5 5 5 5 5 6 6 5 5 5 5 6 6 5 5 4 2
7 7 8 7 7 6 6 7 6 6 5 5 5 6 6 6 6 7 7 6 6 7 7 7 6 6 6 6 6 6 7 7 6 6 5 5 5 5 5 4 5 4 5
8 9 9 9 8 7 7 6 5 5 5 5 6 6 6 7 7 7 8 8 8 8 7 7 7 7 7 6 7 7 7 7 7 6 6 5 5 3 3 4 5 6 6
7 7 8 8 8 7 6 5 5 6 6 6 7 7 7 8 8 9 9 9 9 9 9 9 9 9 7 7 6 6 8 8 8 9 8 8 6 6 5 5 4 5 7
8 7 8 9 8 7 7 7 6 6 7 8 7 8 8 9 9 9 10 10 11 11 11 11 10 10 10 9 8 8 10 10 11 11 11 10 9 9 9 8 8 7 7
8 10 10 10 9 8 8 8 8 8 8 9 9 9 10 10 10 11 11 12 12 12 12 12 12 12 11 10 11 11 11 11 11 11 11 11 10 10 10 9 9 9 9
10 10 10 10 10 10 10 10 10 10 10 10 11 10 10 11 12 12 13 13 13 13 13 13 12 13 13 11 11 11 11 11 11 10 10 9 10 9 9 8 9 9 9
11 11 11 11 11 11 11 11 11 12 11 11 11 11 12 13 14 14 14 14 14 14 14 13 12 12 11 11 11 11 11 12 11 10 9 8 9 9 9 9 8 9 9
11 11 12 12 12 11 12 13 13 13 11 11 12 12 13 14 15 15 15 14 13 14 14 13 12 12 12 12 10 10 10 11 11 11 10 9 9 10 10 10 9 9 8
12 11 12 12 12 12 13 14 14 13 12 13 14 14 15 15 15 16 14 15 16 15 14 13 14 13 12 11 10 10 10 10 11 11 10 9 9 10 10 10 10 10 10
12 12 13 13 13 13 14 15 15 14 14 15 16 16 16 16 15 16 16 16 15 14 15 14 13 13 12 11 10 10 10 10 10 10 9 9 10 10 10 9 9 9 9
13 13 14 14 15 14 14 15 15 14 15 16 17 16 16 15 15 15 15 15 15 15 15 14 14 13 12 12 11 10 10 10 10 10 10 9 10 9 9 9 9 9 9
13 14 15 15 16 16 16 15 15 15 16 16 15 15 15 16 16 15 15 14 14 14 15 14 13 13 13 12 11 11 11 11 10 10 11 11 11 11 10 10 10 10 9
15 15 16 16 16 16 16 15 15 15 15 15 15 15 16 16 16 16 14 13 13 13 13 12 12 12 11 11 11 11 11 11 11 12 12 12 11 11 11 11 11 10 9